Content
SEND FEEDBACK

Daily
Averages
Monthly
Summary
United States of America

YIGO, GUAM


Home > North America > United States > Guam
Elevation: 530 feet     Latitude: 13 32N     Longitude: 144 53E

WEATHER
 
SELECT A DAY
Number of Records: 209,230;   Date Range: 1/1/95 - 9/3/14
 
SHARE

PRINT THIS DATA

[ ← Previous Day ]
WEATHER ALMANAC - JUNE 8, 2014
[ Next Day → ]
[ °C ]   °F
Weather ElementAverageHighLow
Temperature85 °F88 °F (9:54 am)81 °F (1:54 am)
Dewpoint76.7 °F78.8 °F (7:17 am)75 °F (1:54 am)
Humidity76.3 %89 % (7:17 am)66 % (10:01 am)
Barometer29.76 in29.82 in (10:54 pm)29.72 in (3:54 am)
Wind Speed7.5 mph12.7 mph (10:54 am)
Wind Gust19.6 mph (10:54 am)
Weather ElementAverage
Visibility10 mi
Wind DirectionE (89.4 °)

Weather ElementTotal
Precipitation0.01 in
Cooling Degree Days19.5 (Base 65)
Growing Degree Days34.5 (Base 50)
Averaged from 31 records on June 8, 2014
WEATHER CONDITIONS BREAKOUT
WIND DIRECTION BREAKOUT
WEATHER BY HOUR - JUNE 8, 2014
[ °C ]   °F
Local TimeTemperatureDewpointHumidityBarometerVisibilityWind DirectionWind SpeedGust SpeedPrecipitationEventsConditions
1:54 AM81.0 °F75.0 °F82 %29.74 in10.0 miEast (80°)5.8 mphClear
2:54 AM81.0 °F75.9 °F85 %29.73 in10.0 miENE (70°)3.5 mphClear
3:54 AM81.0 °F75.9 °F85 %29.72 in10.0 miEast (90°)4.6 mphClear
4:54 AM82.0 °F75.9 °F82 %29.73 in10.0 miEast (80°)3.5 mphClear
5:54 AM82.0 °F75.9 °F82 %29.74 in10.0 miEast (80°)3.5 mphPartly Cloudy
6:54 AM82.0 °F78.1 °F88 %29.75 in10.0 miCalm0.01 inMostly Cloudy
7:17 AM82.4 °F78.8 °F89 %29.78 in10.0 miEast (90°)3.5 mphMostly Cloudy
7:30 AM84.2 °F78.8 °F84 %29.78 in10.0 miEast (100°)8.1 mph0.00 inMostly Cloudy
7:54 AM84.0 °F78.1 °F82 %29.76 in10.0 miEast (80°)5.8 mph0.00 inPartly Cloudy
8:54 AM87.1 °F75.9 °F69 %29.77 in10.0 miEast (90°)10.4 mphMostly Cloudy
9:07 AM86.0 °F75.2 °F70 %29.79 in10.0 miEast (90°)10.4 mphScattered Clouds
9:20 AM87.8 °F77.0 °F70 %29.79 in10.0 miEast (90°)9.2 mphMostly Cloudy
9:30 AM86.0 °F77.0 °F74 %29.79 in10.0 miEast (100°)8.1 mphScattered Clouds
9:37 AM87.8 °F77.0 °F70 %29.79 in10.0 miEast (90°)10.4 mphMostly Cloudy
9:54 AM88.0 °F77.0 °F70 %29.76 in10.0 miEast (80°)10.4 mphScattered Clouds
10:01 AM87.8 °F75.2 °F66 %29.79 in10.0 miESE (120°)10.4 mphMostly Cloudy
10:31 AM87.8 °F75.2 °F66 %29.78 in10.0 miEast (100°)10.4 mphMostly Cloudy
10:54 AM88.0 °F75.9 °F67 %29.75 in10.0 miESE (110°)12.7 mph19.6 mphScattered Clouds
11:54 AM88.0 °F77.0 °F70 %29.74 in10.0 miESE (110°)11.5 mphScattered Clouds
12:54 PM88.0 °F75.9 °F67 %29.74 in10.0 miEast (100°)9.2 mphScattered Clouds
1:54 PM87.1 °F77.0 °F72 %29.73 in10.0 miESE (120°)10.4 mphMostly Cloudy
2:54 PM88.0 °F77.0 °F70 %29.72 in10.0 miEast (90°)11.5 mphScattered Clouds
3:54 PM86.0 °F77.0 °F74 %29.72 in10.0 miESE (110°)8.1 mphMostly Cloudy
4:54 PM87.1 °F77.0 °F72 %29.73 in10.0 miESE (110°)8.1 mphMostly Cloudy
5:54 PM86.0 °F77.0 °F74 %29.74 in10.0 miEast (100°)8.1 mphClear
6:54 PM84.0 °F77.0 °F79 %29.76 in10.0 miESE (110°)6.9 mphPartly Cloudy
7:54 PM84.0 °F77.0 °F79 %29.79 in10.0 miEast (80°)5.8 mph0.00 inClear
8:54 PM84.0 °F77.0 °F79 %29.80 in10.0 miEast (80°)5.8 mphPartly Cloudy
9:54 PM82.9 °F77.0 °F82 %29.81 in10.0 miEast (90°)4.6 mphPartly Cloudy
10:54 PM82.9 °F77.0 °F82 %29.82 in10.0 miEast (80°)4.6 mphPartly Cloudy
11:54 PM82.0 °F77.0 °F85 %29.82 in10.0 miNE (50°)5.8 mphClear
Hourly data recorded from PGUM, located miles away from Yigo, Guam







STORIES FROM OUR PARTNERS